When you browse on this site, cookies collect data to enhance your experience and personalize the content and advertising you see.
Visit our Privacy Policy to learn more. By continuing to use the site, you agree to this use of cookies and data.
  • In Hungary
  • List of Countries
  • For 7 days
  • Water Temperature
  • Satellite Maps
  • Weather Map
  • News
  • Weather Widgets
  • user-avatar
    Login

    Hourly Weather Levashevo

    Today, 21 May, Tuesday

    Time Temperature Precipitation Wind Pressure Humidity
    00:00 +3°C° 0 mm 3 mps 753 mmHg 76%
    01:00 +3°C° 0 mm 3 mps 753 mmHg 78%
    02:00 +3°C° 0 mm 3 mps 753 mmHg 79%
    03:00 +2°C° 0 mm 3 mps 753 mmHg 80%
    04:00 +3°C° 0 mm 4 mps 753 mmHg 76%
    05:00 +5°C° 0 mm 4 mps 754 mmHg 72%
    06:00 +6°C° 0 mm 4 mps 754 mmHg 68%
    07:00 +7°C° 0 mm 4 mps 754 mmHg 61%
    08:00 +8°C° 0 mm 5 mps 754 mmHg 55%
    09:00 +10°C° 0 mm 5 mps 754 mmHg 48%
    10:00 +10°C° 0 mm 5 mps 754 mmHg 47%
    11:00 +12°C° 0 mm 5 mps 754 mmHg 46%
    12:00 +12°C° 0 mm 5 mps 754 mmHg 45%
    13:00 +13°C° 0 mm 5 mps 753 mmHg 44%
    14:00 +13°C° 0 mm 4 mps 753 mmHg 44%
    15:00 +13°C° 0 mm 4 mps 753 mmHg 43%
    16:00 +13°C° 0 mm 4 mps 753 mmHg 48%
    17:00 +12°C° 0 mm 3 mps 753 mmHg 52%
    18:00 +12°C° 0 mm 3 mps 753 mmHg 56%
    19:00 +12°C° 0 mm 2 mps 753 mmHg 58%
    20:00 +9°C° 0 mm 2 mps 753 mmHg 61%
    21:00 +8°C° 0 mm 2 mps 753 mmHg 63%
    22:00 +8°C° 0 mm 2 mps 753 mmHg 63%
    23:00 +7°C° 0 mm 2 mps 753 mmHg 64%

    Tomorrow, 22 May, Wednesday

    Time Temperature Precipitation Wind Pressure Humidity
    00:00 +7°C° 0 mm 2 mps 753 mmHg 65%
    01:00 +7°C° 0 mm 2 mps 753 mmHg 67%
    02:00 +7°C° 0 mm 3 mps 753 mmHg 68%
    03:00 +7°C° 0 mm 3 mps 753 mmHg 70%
    04:00 +7°C° 0 mm 3 mps 753 mmHg 74%
    05:00 +8°C° 0 mm 3 mps 752 mmHg 78%
    06:00 +8°C° 0 mm 3 mps 752 mmHg 82%
    07:00 +9°C° 0 mm 3 mps 752 mmHg 78%
    08:00 +10°C° 0 mm 4 mps 751 mmHg 75%
    09:00 +11°C° 0 mm 4 mps 751 mmHg 72%
    10:00 +11°C° 0 mm 4 mps 751 mmHg 75%
    11:00 +11°C° 0 mm 4 mps 750 mmHg 77%
    12:00 +10°C° 0 mm 5 mps 750 mmHg 80%
    13:00 +11°C° 0 mm 4 mps 749 mmHg 81%
    14:00 +11°C° 0 mm 4 mps 749 mmHg 82%
    15:00 +11°C° 0 mm 4 mps 749 mmHg 83%
    16:00 +11°C° 0 mm 3 mps 748 mmHg 86%
    17:00 +11°C° 0 mm 3 mps 748 mmHg 89%
    18:00 +11°C° 0 mm 3 mps 747 mmHg 92%
    19:00 +11°C° 0.4 mm 3 mps 747 mmHg 94%
    20:00 +11°C° 0.4 mm 3 mps 747 mmHg 96%
    21:00 +11°C° 0.4 mm 4 mps 747 mmHg 98%
    22:00 +11°C° 0.3 mm 4 mps 747 mmHg 97%
    23:00 +11°C° 0.3 mm 3 mps 746 mmHg 96%

    Day after tomorrow, 23 May, Thursday

    Time Temperature Precipitation Wind Pressure Humidity
    00:00 +11°C° 0.3 mm 3 mps 746 mmHg 96%
    01:00 +11°C° 0.1 mm 3 mps 745 mmHg 96%
    02:00 +11°C° 0.1 mm 3 mps 745 mmHg 96%
    03:00 +10°C° 0.1 mm 3 mps 745 mmHg 96%
    04:00 +11°C° 0.1 mm 4 mps 744 mmHg 96%
    05:00 +10°C° 0.1 mm 5 mps 744 mmHg 95%
    06:00 +11°C° 0.1 mm 6 mps 744 mmHg 95%
    07:00 +12°C° 0.2 mm 7 mps 743 mmHg 88%
    08:00 +15°C° 0.2 mm 8 mps 743 mmHg 82%
    09:00 +16°C° 0.2 mm 9 mps 743 mmHg 76%
    10:00 +15°C° 0.4 mm 8 mps 742 mmHg 79%
    11:00 +15°C° 0.4 mm 8 mps 742 mmHg 82%
    12:00 +14°C° 0.4 mm 7 mps 741 mmHg 85%
    13:00 +15°C° 1.7 mm 7 mps 741 mmHg 86%
    14:00 +15°C° 1.7 mm 7 mps 741 mmHg 86%
    15:00 +15°C° 1.7 mm 6 mps 741 mmHg 87%
    16:00 +15°C° 2.3 mm 6 mps 741 mmHg 88%
    17:00 +14°C° 2.3 mm 5 mps 741 mmHg 90%
    18:00 +14°C° 2.3 mm 4 mps 741 mmHg 92%
    19:00 +12°C° 0 mm 4 mps 742 mmHg 90%
    20:00 +11°C° 0 mm 4 mps 742 mmHg 87%
    21:00 +8°C° 0 mm 4 mps 743 mmHg 85%
    22:00 +7°C° 0 mm 4 mps 743 mmHg 86%
    23:00 +7°C° 0 mm 4 mps 744 mmHg 88%

    24 May, Friday

    Time Temperature Precipitation Wind Pressure Humidity
    00:00 +6°C° 0 mm 4 mps 745 mmHg 89%
    01:00 +5°C° 0 mm 4 mps 745 mmHg 88%
    02:00 +4°C° 0 mm 4 mps 746 mmHg 87%
    03:00 +3°C° 0 mm 4 mps 747 mmHg 85%
    04:00 +4°C° 0 mm 4 mps 748 mmHg 82%
    05:00 +4°C° 0 mm 4 mps 748 mmHg 78%
    06:00 +5°C° 0 mm 4 mps 749 mmHg 75%
    07:00 +6°C° 0 mm 4 mps 749 mmHg 68%
    08:00 +8°C° 0 mm 3 mps 750 mmHg 61%
    09:00 +9°C° 0 mm 3 mps 750 mmHg 55%
    10:00 +9°C° 0 mm 3 mps 750 mmHg 53%
    11:00 +10°C° 0 mm 3 mps 750 mmHg 51%
    12:00 +10°C° 0 mm 3 mps 751 mmHg 49%
    13:00 +11°C° 0 mm 3 mps 751 mmHg 49%
    14:00 +12°C° 0 mm 2 mps 751 mmHg 48%
    15:00 +12°C° 0 mm 2 mps 751 mmHg 48%
    16:00 +12°C° 0 mm 2 mps 751 mmHg 51%
    17:00 +12°C° 0 mm 1 mps 751 mmHg 54%
    18:00 +12°C° 0 mm 1 mps 751 mmHg 57%
    19:00 +11°C° 0 mm 1 mps 751 mmHg 58%
    20:00 +9°C° 0 mm 1 mps 752 mmHg 60%
    21:00 +8°C° 0 mm 1 mps 752 mmHg 61%
    22:00 +7°C° 0 mm 1 mps 752 mmHg 62%
    23:00 +6°C° 0 mm 0 mps 752 mmHg 64%

    25 May, Saturday

    Time Temperature Precipitation Wind Pressure Humidity
    00:00 +5°C° 0 mm 0 mps 752 mmHg 66%
    01:00 +6°C° 0 mm 1 mps 753 mmHg 66%
    02:00 +6°C° 0 mm 1 mps 753 mmHg 67%
    03:00 +6°C° 0 mm 1 mps 753 mmHg 68%
    04:00 +7°C° 0 mm 1 mps 753 mmHg 68%
    05:00 +8°C° 0 mm 1 mps 753 mmHg 68%
    06:00 +9°C° 0 mm 1 mps 754 mmHg 69%
    07:00 +9°C° 0 mm 2 mps 754 mmHg 65%
    08:00 +10°C° 0 mm 2 mps 754 mmHg 60%
    09:00 +13°C° 0 mm 2 mps 754 mmHg 56%
    10:00 +13°C° 0 mm 3 mps 753 mmHg 54%
    11:00 +13°C° 0 mm 3 mps 753 mmHg 52%
    12:00 +14°C° 0 mm 3 mps 753 mmHg 50%
    13:00 +16°C° 0 mm 3 mps 753 mmHg 50%
    14:00 +16°C° 0 mm 3 mps 752 mmHg 51%
    15:00 +15°C° 0 mm 4 mps 752 mmHg 52%
    16:00 +16°C° 0 mm 3 mps 752 mmHg 57%
    17:00 +16°C° 0 mm 3 mps 751 mmHg 62%
    18:00 +14°C° 0 mm 3 mps 751 mmHg 67%
    19:00 +13°C° 0 mm 4 mps 751 mmHg 70%
    20:00 +12°C° 0 mm 4 mps 751 mmHg 73%
    21:00 +10°C° 0 mm 4 mps 751 mmHg 76%
    22:00 +9°C° 0 mm 5 mps 751 mmHg 74%
    23:00 +9°C° 0 mm 5 mps 751 mmHg 72%

    26 May, Sunday

    Time Temperature Precipitation Wind Pressure Humidity
    00:00 +9°C° 0 mm 6 mps 750 mmHg 70%
    01:00 +9°C° 0 mm 6 mps 750 mmHg 69%
    02:00 +9°C° 0 mm 6 mps 750 mmHg 69%
    03:00 +9°C° 0 mm 6 mps 750 mmHg 68%
    04:00 +9°C° 0 mm 6 mps 749 mmHg 69%
    05:00 +9°C° 0 mm 6 mps 749 mmHg 70%
    06:00 +10°C° 0 mm 6 mps 749 mmHg 70%
    07:00 +11°C° 0 mm 6 mps 748 mmHg 70%
    08:00 +14°C° 0 mm 6 mps 748 mmHg 70%
    09:00 +15°C° 0 mm 6 mps 747 mmHg 70%
    10:00 +17°C° 0 mm 6 mps 747 mmHg 67%
    11:00 +19°C° 0 mm 6 mps 747 mmHg 65%
    12:00 +21°C° 0 mm 6 mps 747 mmHg 62%
    13:00 +21°C° 0 mm 6 mps 746 mmHg 63%
    14:00 +21°C° 0 mm 6 mps 746 mmHg 64%
    15:00 +21°C° 0 mm 6 mps 745 mmHg 64%
    16:00 +21°C° 0.4 mm 5 mps 745 mmHg 69%
    17:00 +20°C° 0.4 mm 5 mps 744 mmHg 74%
    18:00 +20°C° 0.4 mm 4 mps 744 mmHg 79%
    19:00 +19°C° 0.1 mm 5 mps 743 mmHg 80%
    20:00 +16°C° 0.1 mm 5 mps 743 mmHg 81%
    21:00 +15°C° 0.1 mm 5 mps 742 mmHg 82%
    22:00 +15°C° 0.1 mm 5 mps 742 mmHg 85%
    23:00 +14°C° 0.1 mm 5 mps 742 mmHg 87%
    Show more